Regional Weather Roundup
Issued by NWS Charleston, WV

Home | Current Version | Previous Version | Graphics & Text | Print | Product List | Glossary On
Versions: 1 2 3 4 5 6 7 8 9 10 11 12 13 14 15 16 17 18 19 20 21 22 23 24 25 26 27 28 29 30 31 32 33 34 35 36 37 38 39 40 41 42 43 44 45 46 47 48 49 50
000
ASUS41 KRLX 242010
RWRRLX
West Virginia Regional Weather Roundup
National Weather Service Charleston WV
400 PM EDT THU JUL 24 2014

Note: "fair" indicates few or no clouds below 12,000 feet with no
significant weather and/or obstructions to visibility.

WVZ003-242100-
Northern Panhandle of West Virginia

CITY           SKY/WX    TMP DP  RH WIND       PRES   REMARKS
WHEELING       PTSUNNY   73  52  47 N9        30.01S
$$

WVZ009-242100-
Northwest West Virginia

CITY           SKY/WX    TMP DP  RH WIND       PRES   REMARKS
PARKERSBURG    PTSUNNY  N/A N/A N/A NE9       30.02
$$

WVZ006-242100-
Western West Virginia

CITY           SKY/WX    TMP DP  RH WIND       PRES   REMARKS
HUNTINGTON     PTSUNNY   72  62  71 VRB3      30.00F
$$

WVZ015-242100-
West Central West Virginia

CITY           SKY/WX    TMP DP  RH WIND       PRES   REMARKS
CHARLESTON     CLOUDY    67  65  93 N5        30.00S
$$

WVZ031-242100-
North Central West Virginia

CITY           SKY/WX    TMP DP  RH WIND       PRES   REMARKS
CLARKSBURG     PTSUNNY   73  54  51 N8        29.99F
MORGANTOWN     MOSUNNY   76  54  46 N10       30.00F
$$

WVZ035-042-045-242100-
South Central West Virginia

CITY           SKY/WX    TMP DP  RH WIND       PRES   REMARKS
BECKLEY        CLOUDY    68  64  87 N12       30.01R
BLUEFIELD      CLOUDY    71  66  84 W9        30.02R THUNDER
LEWISBURG      PTSUNNY   74  65  73 NE5       29.97F
$$

WVZ047-242100-
Northern Mountains of West Virginia

CITY           SKY/WX    TMP DP  RH WIND       PRES   REMARKS
ELKINS         CLOUDY    66  60  81 NW6       30.02S
$$

WVZ052-242100-
Eastern Panhandle of West Virginia

CITY           SKY/WX    TMP DP  RH WIND       PRES   REMARKS
MARTINSBURG    CLOUDY    78  55  44 N7        29.94S
PETERSBURG     CLOUDY    70  60  69 CALM      29.97F
$$



USA.gov is the U.S. government's official web portal to all federal, state and local government web resources and services.